Time,TemperatureF,DewpointF,PressureIn,WindDirection,WindDirectionDegrees,WindSpeedMPH,WindSpeedGustMPH,Humidity,HourlyPrecipIn,Conditions,Clouds,dailyrainin,SoftwareType,DateUTC
2013-08-15 00:02:00,81.5,58.7,29.65,WNW,289,6.0,8.0,46,0.00,,,0.00,Wunderground v.1.15,2013-08-15 07:02:00,
2013-08-15 00:07:00,81.6,58.8,29.65,WNW,293,5.0,-999.0,46,0.00,,,0.05,Wunderground v.1.15,2013-08-15 07:07:00,
2013-08-15 00:08:00,81.6,58.8,29.65,West,276,6.0,8.0,46,0.00,,,0.00,Wunderground v.1.15,2013-08-15 07:08:00,
2013-08-15 00:12:00,81.6,58.8,29.65,WNW,293,5.0,-999.0,46,0.00,,,0.05,Wunderground v.1.15,2013-08-15 07:12:00,
2013-08-15 00:13:00,81.7,58.9,29.65,West,277,5.0,6.0,46,0.00,,,0.00,Wunderground v.1.15,2013-08-15 07:13:00,
2013-08-15 00:17:00,81.5,58.7,29.65,WNW,293,6.0,-999.0,46,0.00,,,0.05,Wunderground v.1.15,2013-08-15 07:17:00,
2013-08-15 00:19:00,81.5,58.7,29.65,West,280,5.0,10.0,46,0.00,,,0.00,Wunderground v.1.15,2013-08-15 07:19:00,
2013-08-15 00:22:00,81.5,58.7,29.65,WNW,293,6.0,-999.0,46,0.00,,,0.05,Wunderground v.1.15,2013-08-15 07:22:00,
2013-08-15 00:24:00,81.5,58.7,29.65,West,259,6.0,11.0,46,0.00,,,0.00,Wunderground v.1.15,2013-08-15 07:24:00,
2013-08-15 00:27:00,81.6,58.8,29.65,West,270,5.0,-999.0,46,0.00,,,0.05,Wunderground v.1.15,2013-08-15 07:27:00,
2013-08-15 00:29:00,81.5,58.7,29.65,West,268,5.0,11.0,46,0.00,,,0.00,Wunderground v.1.15,2013-08-15 07:29:00,
2013-08-15 00:32:00,81.6,58.8,29.65,West,270,5.0,-999.0,46,0.00,,,0.05,Wunderground v.1.15,2013-08-15 07:32:00,
2013-08-15 00:34:00,81.6,58.8,29.65,West,263,5.0,8.0,46,0.00,,,0.00,Wunderground v.1.15,2013-08-15 07:34:00,
2013-08-15 00:37:00,81.7,58.3,29.65,West,270,3.0,-999.0,45,0.00,,,0.05,Wunderground v.1.15,2013-08-15 07:37:00,
2013-08-15 00:40:00,81.7,58.3,29.65,West,262,3.0,6.0,45,0.00,,,0.00,Wunderground v.1.15,2013-08-15 07:40:00,
2013-08-15 00:42:00,81.7,58.3,29.65,West,270,3.0,-999.0,45,0.00,,,0.05,Wunderground v.1.15,2013-08-15 07:42:00,
2013-08-15 00:45:00,81.8,58.4,29.65,WNW,287,3.0,6.0,45,0.00,,,0.00,Wunderground v.1.15,2013-08-15 07:45:00,
2013-08-15 00:47:00,81.9,57.8,29.64,WNW,293,4.0,-999.0,44,0.00,,,0.05,Wunderground v.1.15,2013-08-15 07:47:00,
2013-08-15 00:51:00,81.9,57.8,29.64,WNW,297,4.0,7.0,44,0.00,,,0.00,Wunderground v.1.15,2013-08-15 07:51:00,
2013-08-15 00:52:00,81.9,57.8,29.64,WNW,293,4.0,-999.0,44,0.00,,,0.05,Wunderground v.1.15,2013-08-15 07:52:00,
2013-08-15 00:56:00,82.1,57.4,29.64,WSW,255,4.0,7.0,43,0.00,,,0.00,Wunderground v.1.15,2013-08-15 07:56:00,
2013-08-15 00:57:00,82.2,56.8,29.64,West,270,4.0,-999.0,42,0.00,,,0.05,Wunderground v.1.15,2013-08-15 07:57:00,
2013-08-15 01:01:00,82.4,57.0,29.64,West,267,4.0,8.0,42,0.00,,,0.00,Wunderground v.1.15,2013-08-15 08:01:00,
2013-08-15 01:02:00,82.2,56.8,29.64,West,270,4.0,-999.0,42,0.00,,,0.05,Wunderground v.1.15,2013-08-15 08:02:00,
2013-08-15 01:07:00,82.6,57.2,29.64,SW,231,4.0,8.0,42,0.00,,,0.00,Wunderground v.1.15,2013-08-15 08:07:00,
2013-08-15 01:12:00,82.6,57.2,29.64,SW,215,5.0,8.0,42,0.00,,,0.00,Wunderground v.1.15,2013-08-15 08:12:00,
2013-08-15 01:17:00,82.6,56.5,29.64,SW,225,5.0,9.0,41,0.00,,,0.00,Wunderground v.1.15,2013-08-15 08:17:00,
2013-08-15 01:22:00,82.7,56.6,29.64,SW,225,5.0,-999.0,41,0.00,,,0.05,Wunderground v.1.15,2013-08-15 08:22:00,
2013-08-15 01:23:00,82.9,56.8,29.63,WSW,238,5.0,9.0,41,0.00,,,0.00,Wunderground v.1.15,2013-08-15 08:23:00,
2013-08-15 01:27:00,82.8,56.7,29.63,West,270,4.0,-999.0,41,0.00,,,0.05,Wunderground v.1.15,2013-08-15 08:27:00,
2013-08-15 01:28:00,82.8,56.7,29.64,WNW,289,4.0,9.0,41,0.00,,,0.00,Wunderground v.1.15,2013-08-15 08:28:00,
2013-08-15 01:32:00,82.8,56.7,29.63,West,270,4.0,-999.0,41,0.00,,,0.05,Wunderground v.1.15,2013-08-15 08:32:00,
2013-08-15 01:33:00,82.8,56.7,29.63,West,278,4.0,5.0,41,0.00,,,0.00,Wunderground v.1.15,2013-08-15 08:33:00,
2013-08-15 01:37:00,82.8,56.7,29.63,West,270,4.0,-999.0,41,0.00,,,0.05,Wunderground v.1.15,2013-08-15 08:37:00,
2013-08-15 01:39:00,82.8,57.4,29.63,WSW,255,4.0,6.0,42,0.00,,,0.00,Wunderground v.1.15,2013-08-15 08:39:00,
2013-08-15 01:42:00,82.8,56.7,29.63,West,270,4.0,-999.0,41,0.00,,,0.05,Wunderground v.1.15,2013-08-15 08:42:00,
2013-08-15 01:44:00,82.8,56.7,29.63,WNW,290,5.0,6.0,41,0.00,,,0.00,Wunderground v.1.15,2013-08-15 08:44:00,
2013-08-15 01:47:00,82.9,56.8,29.63,West,270,5.0,-999.0,41,0.00,,,0.05,Wunderground v.1.15,2013-08-15 08:47:00,
2013-08-15 01:50:00,82.9,56.8,29.63,West,277,5.0,6.0,41,0.00,,,0.00,Wunderground v.1.15,2013-08-15 08:50:00,
2013-08-15 01:52:00,82.9,56.8,29.63,West,270,5.0,-999.0,41,0.00,,,0.05,Wunderground v.1.15,2013-08-15 08:52:00,
2013-08-15 01:56:00,83.0,56.9,29.63,West,259,5.0,6.0,41,0.00,,,0.00,Wunderground v.1.15,2013-08-15 08:56:00,
2013-08-15 01:57:00,82.9,56.8,29.63,West,270,4.0,-999.0,41,0.00,,,0.05,Wunderground v.1.15,2013-08-15 08:57:00,
2013-08-15 02:01:00,82.9,56.8,29.63,West,268,4.0,4.0,41,0.00,,,0.00,Wunderground v.1.15,2013-08-15 09:01:00,
2013-08-15 02:02:00,82.9,56.8,29.63,West,270,4.0,-999.0,41,0.00,,,0.05,Wunderground v.1.15,2013-08-15 09:02:00,
2013-08-15 02:07:00,82.8,56.7,29.63,WSW,256,3.0,6.0,41,0.00,,,0.00,Wunderground v.1.15,2013-08-15 09:07:00,
2013-08-15 02:12:00,82.7,56.6,29.63,WSW,257,4.0,5.0,41,0.00,,,0.00,Wunderground v.1.15,2013-08-15 09:12:00,
2013-08-15 02:17:00,82.5,57.1,29.63,WSW,246,4.0,5.0,42,0.00,,,0.00,Wunderground v.1.15,2013-08-15 09:17:00,
2013-08-15 02:22:00,82.5,57.1,29.63,WNW,287,4.0,4.0,42,0.00,,,0.00,Wunderground v.1.15,2013-08-15 09:22:00,
2013-08-15 02:27:00,82.9,56.8,29.63,WNW,293,5.0,-999.0,41,0.00,,,0.05,Wunderground v.1.15,2013-08-15 09:27:00,
2013-08-15 02:28:00,82.8,56.7,29.63,WNW,285,4.0,7.0,41,0.00,,,0.00,Wunderground v.1.15,2013-08-15 09:28:00,
2013-08-15 02:32:00,82.9,56.8,29.63,WNW,293,5.0,-999.0,41,0.00,,,0.05,Wunderground v.1.15,2013-08-15 09:32:00,
2013-08-15 02:33:00,83.0,56.9,29.63,WSW,250,5.0,6.0,41,0.00,,,0.00,Wunderground v.1.15,2013-08-15 09:33:00,
2013-08-15 02:37:00,83.2,57.1,29.63,West,270,4.0,-999.0,41,0.00,,,0.05,Wunderground v.1.15,2013-08-15 09:37:00,
2013-08-15 02:39:00,83.1,57.0,29.63,West,269,4.0,6.0,41,0.00,,,0.00,Wunderground v.1.15,2013-08-15 09:39:00,
2013-08-15 02:42:00,83.2,57.1,29.63,West,270,4.0,-999.0,41,0.00,,,0.05,Wunderground v.1.15,2013-08-15 09:42:00,
2013-08-15 02:44:00,83.2,57.1,29.63,WSW,255,4.0,4.0,41,0.00,,,0.00,Wunderground v.1.15,2013-08-15 09:44:00,
2013-08-15 02:47:00,83.2,57.1,29.63,West,270,3.0,-999.0,41,0.00,,,0.05,Wunderground v.1.15,2013-08-15 09:47:00,
2013-08-15 02:50:00,83.2,57.1,29.63,West,271,3.0,7.0,41,0.00,,,0.00,Wunderground v.1.15,2013-08-15 09:50:00,
2013-08-15 02:52:00,83.2,57.1,29.63,West,270,3.0,-999.0,41,0.00,,,0.05,Wunderground v.1.15,2013-08-15 09:52:00,
2013-08-15 02:55:00,83.0,56.9,29.63,WNW,287,4.0,7.0,41,0.00,,,0.00,Wunderground v.1.15,2013-08-15 09:55:00,
2013-08-15 02:57:00,82.7,56.6,29.63,WNW,293,3.0,-999.0,41,0.00,,,0.05,Wunderground v.1.15,2013-08-15 09:57:00,
2013-08-15 03:01:00,82.7,56.6,29.63,WNW,285,3.0,4.0,41,0.00,,,0.00,Wunderground v.1.15,2013-08-15 10:01:00,
2013-08-15 03:02:00,82.7,56.6,29.63,WNW,293,3.0,-999.0,41,0.00,,,0.05,Wunderground v.1.15,2013-08-15 10:02:00,
2013-08-15 03:07:00,82.5,57.1,29.63,WSW,257,2.0,4.0,42,0.00,,,0.00,Wunderground v.1.15,2013-08-15 10:07:00,
2013-08-15 03:12:00,82.3,56.9,29.63,SW,228,2.0,2.0,42,0.00,,,0.00,Wunderground v.1.15,2013-08-15 10:12:00,
2013-08-15 03:17:00,81.7,57.0,29.64,West,270,1.0,-999.0,43,0.00,,,0.05,Wunderground v.1.15,2013-08-15 10:17:00,
2013-08-15 03:18:00,81.7,57.0,29.63,WSW,257,1.0,2.0,43,0.00,,,0.00,Wunderground v.1.15,2013-08-15 10:18:00,
2013-08-15 03:22:00,81.7,57.0,29.64,West,270,1.0,-999.0,43,0.00,,,0.05,Wunderground v.1.15,2013-08-15 10:22:00,
2013-08-15 03:23:00,81.6,56.9,29.64,SSW,211,2.0,3.0,43,0.00,,,0.00,Wunderground v.1.15,2013-08-15 10:23:00,
2013-08-15 03:27:00,81.5,56.8,29.64,West,270,2.0,-999.0,43,0.00,,,0.05,Wunderground v.1.15,2013-08-15 10:27:00,
2013-08-15 03:29:00,81.5,56.8,29.64,West,281,3.0,4.0,43,0.00,,,0.00,Wunderground v.1.15,2013-08-15 10:29:00,
2013-08-15 03:32:00,81.5,56.8,29.64,West,270,2.0,-999.0,43,0.00,,,0.05,Wunderground v.1.15,2013-08-15 10:32:00,
2013-08-15 03:34:00,81.2,57.2,29.64,East,95,2.0,4.0,44,0.00,,,0.00,Wunderground v.1.15,2013-08-15 10:34:00,
2013-08-15 03:37:00,80.2,57.5,29.64,ESE,113,1.0,-999.0,46,0.00,,,0.05,Wunderground v.1.15,2013-08-15 10:37:00,
2013-08-15 03:40:00,80.2,57.5,29.64,ESE,104,1.0,1.0,46,0.00,,,0.00,Wunderground v.1.15,2013-08-15 10:40:00,
2013-08-15 03:42:00,80.2,57.5,29.64,ESE,113,1.0,-999.0,46,0.00,,,0.05,Wunderground v.1.15,2013-08-15 10:42:00,
2013-08-15 03:45:00,79.8,57.2,29.64,ESE,104,1.0,1.0,46,0.00,,,0.00,Wunderground v.1.15,2013-08-15 10:45:00,
2013-08-15 03:47:00,79.9,57.3,29.64,West,270,0.0,-999.0,46,0.00,,,0.05,Wunderground v.1.15,2013-08-15 10:47:00,
2013-08-15 03:51:00,80.1,57.5,29.64,West,275,0.0,2.0,46,0.00,,,0.00,Wunderground v.1.15,2013-08-15 10:51:00,
2013-08-15 03:52:00,79.9,57.3,29.64,West,270,0.0,-999.0,46,0.00,,,0.05,Wunderground v.1.15,2013-08-15 10:52:00,
2013-08-15 03:57:00,80.5,57.2,29.64,NW,306,2.0,3.0,45,0.00,,,0.00,Wunderground v.1.15,2013-08-15 10:57:00,
2013-08-15 04:02:00,80.6,57.3,29.64,WNW,301,3.0,4.0,45,0.00,,,0.00,Wunderground v.1.15,2013-08-15 11:02:00,
2013-08-15 04:07:00,80.7,56.8,29.64,WNW,293,4.0,-999.0,44,0.00,,,0.05,Wunderground v.1.15,2013-08-15 11:07:00,
2013-08-15 04:08:00,80.8,57.5,29.64,WNW,301,4.0,5.0,45,0.00,,,0.00,Wunderground v.1.15,2013-08-15 11:08:00,
2013-08-15 04:12:00,80.7,56.8,29.64,WNW,293,4.0,-999.0,44,0.00,,,0.05,Wunderground v.1.15,2013-08-15 11:12:00,
2013-08-15 04:14:00,80.8,56.9,29.65,WNW,300,4.0,5.0,44,0.00,,,0.00,Wunderground v.1.15,2013-08-15 11:14:00,
2013-08-15 04:17:00,80.1,56.8,29.65,WNW,293,4.0,-999.0,45,0.00,,,0.05,Wunderground v.1.15,2013-08-15 11:17:00,
2013-08-15 04:20:00,80.1,56.8,29.65,NW,311,4.0,4.0,45,0.00,,,0.00,Wunderground v.1.15,2013-08-15 11:20:00,
2013-08-15 04:22:00,80.1,56.8,29.65,WNW,293,4.0,-999.0,45,0.00,,,0.05,Wunderground v.1.15,2013-08-15 11:22:00,
2013-08-15 04:25:00,79.9,57.3,29.65,WNW,295,3.0,4.0,46,0.00,,,0.00,Wunderground v.1.15,2013-08-15 11:25:00,
2013-08-15 04:27:00,80.0,56.7,29.65,WNW,293,2.0,-999.0,45,0.00,,,0.05,Wunderground v.1.15,2013-08-15 11:27:00,
2013-08-15 04:31:00,79.9,56.7,29.65,West,277,2.0,3.0,45,0.00,,,0.00,Wunderground v.1.15,2013-08-15 11:31:00,
2013-08-15 04:32:00,80.0,56.7,29.65,WNW,293,2.0,-999.0,45,0.00,,,0.05,Wunderground v.1.15,2013-08-15 11:32:00,
2013-08-15 04:36:00,79.7,57.1,29.65,WNW,288,2.0,3.0,46,0.00,,,0.00,Wunderground v.1.15,2013-08-15 11:36:00,
2013-08-15 04:37:00,79.9,56.7,29.65,West,270,2.0,-999.0,45,0.00,,,0.05,Wunderground v.1.15,2013-08-15 11:37:00,
2013-08-15 04:42:00,79.8,57.2,29.65,NW,304,3.0,3.0,46,0.00,,,0.00,Wunderground v.1.15,2013-08-15 11:42:00,
2013-08-15 04:47:00,79.3,56.7,29.65,NW,315,2.0,-999.0,46,0.00,,,0.05,Wunderground v.1.15,2013-08-15 11:47:00,
2013-08-15 04:48:00,79.3,56.7,29.65,NW,323,2.0,3.0,46,0.00,,,0.00,Wunderground v.1.15,2013-08-15 11:48:00,
2013-08-15 04:52:00,79.3,56.7,29.65,NW,315,2.0,-999.0,46,0.00,,,0.05,Wunderground v.1.15,2013-08-15 11:52:00,
2013-08-15 04:54:00,79.4,56.8,29.65,NW,322,1.0,2.0,46,0.00,,,0.00,Wunderground v.1.15,2013-08-15 11:54:00,
2013-08-15 04:57:00,79.6,57.0,29.66,NW,315,1.0,-999.0,46,0.00,,,0.05,Wunderground v.1.15,2013-08-15 11:57:00,
2013-08-15 05:00:00,79.6,57.0,29.66,NNW,348,1.0,2.0,46,0.00,,,0.00,Wunderground v.1.15,2013-08-15 12:00:00,
2013-08-15 05:02:00,79.6,57.0,29.66,NW,315,1.0,-999.0,46,0.00,,,0.05,Wunderground v.1.15,2013-08-15 12:02:00,
2013-08-15 05:05:00,79.8,56.6,29.66,WNW,288,1.0,2.0,45,0.00,,,0.00,Wunderground v.1.15,2013-08-15 12:05:00,
2013-08-15 05:07:00,80.1,56.8,29.66,WNW,293,1.0,-999.0,45,0.00,,,0.05,Wunderground v.1.15,2013-08-15 12:07:00,
2013-08-15 05:11:00,80.1,56.8,29.66,WNW,288,1.0,1.0,45,0.00,,,0.00,Wunderground v.1.15,2013-08-15 12:11:00,
2013-08-15 05:12:00,80.1,56.8,29.66,WNW,293,1.0,-999.0,45,0.00,,,0.05,Wunderground v.1.15,2013-08-15 12:12:00,
2013-08-15 05:16:00,79.9,56.7,29.66,NNW,342,2.0,5.0,45,0.00,,,0.00,Wunderground v.1.15,2013-08-15 12:16:00,
2013-08-15 05:17:00,79.2,56.6,29.66,NW,315,3.0,-999.0,46,0.00,,,0.05,Wunderground v.1.15,2013-08-15 12:17:00,
2013-08-15 05:21:00,79.0,56.5,29.66,NW,321,3.0,3.0,46,0.00,,,0.00,Wunderground v.1.15,2013-08-15 12:21:00,
2013-08-15 05:22:00,79.2,56.6,29.66,NW,315,3.0,-999.0,46,0.00,,,0.05,Wunderground v.1.15,2013-08-15 12:22:00,
2013-08-15 05:27:00,79.2,56.6,29.66,WNW,298,3.0,5.0,46,0.00,,,0.00,Wunderground v.1.15,2013-08-15 12:27:00,
2013-08-15 05:32:00,79.4,56.8,29.66,WNW,285,3.0,3.0,46,0.00,,,0.00,Wunderground v.1.15,2013-08-15 12:32:00,
2013-08-15 05:37:00,79.9,56.7,29.66,West,274,2.0,3.0,45,0.00,,,0.00,Wunderground v.1.15,2013-08-15 12:37:00,
2013-08-15 05:42:00,79.6,56.4,29.67,NW,318,1.0,4.0,45,0.00,,,0.00,Wunderground v.1.15,2013-08-15 12:42:00,
2013-08-15 05:47:00,79.5,56.9,29.66,NW,315,2.0,6.0,46,0.00,,,0.00,Wunderground v.1.15,2013-08-15 12:47:00,
2013-08-15 05:52:00,79.8,57.2,29.66,NW,326,3.0,6.0,46,0.00,,,0.00,Wunderground v.1.15,2013-08-15 12:52:00,
2013-08-15 05:57:00,80.1,56.8,29.67,NNW,338,6.0,-999.0,45,0.00,,,0.05,Wunderground v.1.15,2013-08-15 12:57:00,
2013-08-15 05:58:00,80.0,57.4,29.67,NNW,337,5.0,7.0,46,0.00,,,0.00,Wunderground v.1.15,2013-08-15 12:58:00,
2013-08-15 06:02:00,80.1,56.8,29.67,NNW,338,6.0,-999.0,45,0.00,,,0.05,Wunderground v.1.15,2013-08-15 13:02:00,
2013-08-15 06:04:00,80.3,57.0,29.67,NNW,329,6.0,7.0,45,0.00,,,0.00,Wunderground v.1.15,2013-08-15 13:04:00,
2013-08-15 06:07:00,80.7,56.8,29.67,NW,315,5.0,-999.0,44,0.00,,,0.05,Wunderground v.1.15,2013-08-15 13:07:00,
2013-08-15 06:10:00,80.8,56.9,29.67,NW,320,5.0,5.0,44,0.00,,,0.00,Wunderground v.1.15,2013-08-15 13:10:00,
2013-08-15 06:12:00,80.7,56.8,29.67,NW,315,5.0,-999.0,44,0.00,,,0.05,Wunderground v.1.15,2013-08-15 13:12:00,
2013-08-15 06:15:00,81.0,57.0,29.68,WSW,255,4.0,5.0,44,0.00,,,0.00,Wunderground v.1.15,2013-08-15 13:15:00,
2013-08-15 06:17:00,80.3,57.6,29.68,NW,315,3.0,-999.0,46,0.00,,,0.05,Wunderground v.1.15,2013-08-15 13:17:00,
2013-08-15 06:21:00,80.1,58.0,29.68,SE,138,3.0,3.0,47,0.00,,,0.00,Wunderground v.1.15,2013-08-15 13:21:00,
2013-08-15 06:22:00,80.3,57.6,29.68,NW,315,3.0,-999.0,46,0.00,,,0.05,Wunderground v.1.15,2013-08-15 13:22:00,
2013-08-15 06:26:00,79.5,58.1,29.68,ESE,115,2.0,3.0,48,0.00,,,0.00,Wunderground v.1.15,2013-08-15 13:26:00,
2013-08-15 06:27:00,79.4,58.0,29.68,ESE,113,0.0,-999.0,48,0.00,,,0.05,Wunderground v.1.15,2013-08-15 13:27:00,
2013-08-15 06:32:00,79.5,58.1,29.68,ESE,115,0.0,1.0,48,0.00,,,0.00,Wunderground v.1.15,2013-08-15 13:32:00,
2013-08-15 06:37:00,80.2,58.1,29.68,N/A,-737280,0.0,-999.0,47,0.00,,,0.05,Wunderground v.1.15,2013-08-15 13:37:00,
2013-08-15 06:38:00,79.9,58.5,29.68,ESE,115,0.0,1.0,48,0.00,,,0.00,Wunderground v.1.15,2013-08-15 13:38:00,
2013-08-15 06:42:00,80.2,58.1,29.68,N/A,-737280,0.0,-999.0,47,0.00,,,0.05,Wunderground v.1.15,2013-08-15 13:42:00,
2013-08-15 06:43:00,80.8,58.1,29.68,ESE,115,0.0,0.0,46,0.00,,,0.00,Wunderground v.1.15,2013-08-15 13:43:00,
2013-08-15 06:47:00,81.4,58.0,29.68,NW,315,0.0,-999.0,45,0.00,,,0.05,Wunderground v.1.15,2013-08-15 13:47:00,
2013-08-15 06:49:00,81.4,58.6,29.68,East,100,0.0,0.0,46,0.00,,,0.00,Wunderground v.1.15,2013-08-15 13:49:00,
2013-08-15 06:52:00,81.4,58.0,29.68,NW,315,0.0,-999.0,45,0.00,,,0.05,Wunderground v.1.15,2013-08-15 13:52:00,
2013-08-15 06:54:00,81.3,57.9,29.68,NNW,329,1.0,3.0,45,0.00,,,0.00,Wunderground v.1.15,2013-08-15 13:54:00,
2013-08-15 06:57:00,81.7,57.7,29.68,NNW,338,2.0,-999.0,44,0.00,,,0.05,Wunderground v.1.15,2013-08-15 13:57:00,
2013-08-15 07:00:00,81.7,57.7,29.68,NNW,333,2.0,2.0,44,0.00,,,0.00,Wunderground v.1.15,2013-08-15 14:00:00,
2013-08-15 07:02:00,81.7,57.7,29.68,NNW,338,2.0,-999.0,44,0.00,,,0.05,Wunderground v.1.15,2013-08-15 14:02:00,
2013-08-15 07:06:00,81.7,57.7,29.68,NNW,329,2.0,2.0,44,0.00,,,0.00,Wunderground v.1.15,2013-08-15 14:06:00,
2013-08-15 07:07:00,81.8,57.8,29.68,NNW,338,1.0,-999.0,44,0.00,,,0.05,Wunderground v.1.15,2013-08-15 14:07:00,
2013-08-15 07:12:00,81.9,57.8,29.68,NNW,346,1.0,2.0,44,0.00,,,0.00,Wunderground v.1.15,2013-08-15 14:12:00,
2013-08-15 07:17:00,82.2,57.5,29.68,NNW,346,2.0,2.0,43,0.00,,,0.00,Wunderground v.1.15,2013-08-15 14:17:00,
2013-08-15 07:22:00,82.4,57.7,29.68,NNW,338,2.0,-999.0,43,0.00,,,0.05,Wunderground v.1.15,2013-08-15 14:22:00,
2013-08-15 07:23:00,82.6,57.8,29.69,NNW,345,1.0,2.0,43,0.00,,,0.00,Wunderground v.1.15,2013-08-15 14:23:00,
2013-08-15 07:27:00,83.5,57.3,29.69,West,270,0.0,-999.0,41,0.00,,,0.05,Wunderground v.1.15,2013-08-15 14:27:00,
2013-08-15 07:29:00,83.4,57.2,29.69,West,273,0.0,2.0,41,0.00,,,0.00,Wunderground v.1.15,2013-08-15 14:29:00,
2013-08-15 07:32:00,83.5,57.3,29.69,West,270,0.0,-999.0,41,0.00,,,0.05,Wunderground v.1.15,2013-08-15 14:32:00,
2013-08-15 07:35:00,83.8,57.6,29.69,West,273,0.0,0.0,41,0.00,,,0.00,Wunderground v.1.15,2013-08-15 14:35:00,
2013-08-15 07:37:00,84.0,57.8,29.69,West,270,0.0,-999.0,41,0.00,,,0.05,Wunderground v.1.15,2013-08-15 14:37:00,
2013-08-15 07:41:00,84.0,57.8,29.69,West,273,0.0,0.0,41,0.00,,,0.00,Wunderground v.1.15,2013-08-15 14:41:00,
2013-08-15 07:42:00,84.0,57.8,29.69,West,270,0.0,-999.0,41,0.00,,,0.05,Wunderground v.1.15,2013-08-15 14:42:00,
2013-08-15 07:47:00,84.2,57.3,29.69,West,273,0.0,0.0,40,0.00,,,0.00,Wunderground v.1.15,2013-08-15 14:47:00,
2013-08-15 07:52:00,84.5,57.5,29.69,WSW,245,0.0,1.0,40,0.00,,,0.00,Wunderground v.1.15,2013-08-15 14:52:00,
2013-08-15 07:57:00,84.7,57.7,29.69,WSW,248,2.0,-999.0,40,0.00,,,0.05,Wunderground v.1.15,2013-08-15 14:57:00,
2013-08-15 07:59:00,84.7,57.7,29.69,SSW,195,2.0,4.0,40,0.00,,,0.00,Wunderground v.1.15,2013-08-15 14:59:00,
2013-08-15 08:02:00,84.7,57.7,29.69,WSW,248,2.0,-999.0,40,0.00,,,0.05,Wunderground v.1.15,2013-08-15 15:02:00,
2013-08-15 08:05:00,84.6,58.3,29.69,SSE,149,3.0,5.0,41,0.00,,,0.00,Wunderground v.1.15,2013-08-15 15:05:00,
2013-08-15 08:07:00,84.4,58.1,29.69,SE,135,3.0,-999.0,41,0.00,,,0.05,Wunderground v.1.15,2013-08-15 15:07:00,
2013-08-15 08:11:00,84.4,58.8,29.69,SE,141,3.0,3.0,42,0.00,,,0.00,Wunderground v.1.15,2013-08-15 15:11:00,
2013-08-15 08:12:00,84.4,58.1,29.69,SE,135,3.0,-999.0,41,0.00,,,0.05,Wunderground v.1.15,2013-08-15 15:12:00,
2013-08-15 08:16:00,84.5,60.2,29.69,SSE,155,3.0,3.0,44,0.00,,,0.00,Wunderground v.1.15,2013-08-15 15:16:00,
2013-08-15 08:17:00,84.6,60.3,29.69,SSE,158,2.0,-999.0,44,0.00,,,0.05,Wunderground v.1.15,2013-08-15 15:17:00,
2013-08-15 08:21:00,84.7,59.7,29.69,SSW,211,2.0,2.0,43,0.00,,,0.00,Wunderground v.1.15,2013-08-15 15:21:00,
2013-08-15 08:22:00,84.6,60.3,29.69,SSE,158,2.0,-999.0,44,0.00,,,0.05,Wunderground v.1.15,2013-08-15 15:22:00,
2013-08-15 08:27:00,84.9,59.2,29.69,SE,130,1.0,2.0,42,0.00,,,0.00,Wunderground v.1.15,2013-08-15 15:27:00,
2013-08-15 08:32:00,85.5,59.1,29.69,SSW,195,1.0,1.0,41,0.00,,,0.00,Wunderground v.1.15,2013-08-15 15:32:00,
2013-08-15 08:37:00,86.3,59.8,29.69,SSE,158,1.0,-999.0,41,0.00,,,0.05,Wunderground v.1.15,2013-08-15 15:37:00,
2013-08-15 08:38:00,86.3,59.1,29.69,SSW,204,1.0,3.0,40,0.00,,,0.00,Wunderground v.1.15,2013-08-15 15:38:00,
2013-08-15 08:42:00,86.3,59.8,29.69,SSE,158,1.0,-999.0,41,0.00,,,0.05,Wunderground v.1.15,2013-08-15 15:42:00,
2013-08-15 08:44:00,86.2,60.4,29.69,SSE,147,2.0,4.0,42,0.00,,,0.00,Wunderground v.1.15,2013-08-15 15:44:00,
2013-08-15 08:47:00,85.8,60.1,29.69,South,180,3.0,-999.0,42,0.00,,,0.05,Wunderground v.1.15,2013-08-15 15:47:00,
2013-08-15 08:50:00,85.8,60.1,29.69,South,185,3.0,3.0,42,0.00,,,0.00,Wunderground v.1.15,2013-08-15 15:50:00,
2013-08-15 08:52:00,85.8,60.1,29.69,South,180,3.0,-999.0,42,0.00,,,0.05,Wunderground v.1.15,2013-08-15 15:52:00,
2013-08-15 08:55:00,85.7,59.3,29.69,SSW,203,3.0,5.0,41,0.00,,,0.00,Wunderground v.1.15,2013-08-15 15:55:00,
2013-08-15 08:57:00,85.7,58.6,29.69,SSW,203,2.0,-999.0,40,0.00,,,0.05,Wunderground v.1.15,2013-08-15 15:57:00,
2013-08-15 09:00:00,85.7,58.6,29.69,ESE,109,3.0,3.0,40,0.00,,,0.00,Wunderground v.1.15,2013-08-15 16:00:00,
2013-08-15 09:02:00,85.7,58.6,29.69,SSW,203,2.0,-999.0,40,0.00,,,0.05,Wunderground v.1.15,2013-08-15 16:02:00,
2013-08-15 09:05:00,86.6,58.0,29.69,WSW,249,2.0,3.0,38,0.00,,,0.00,Wunderground v.1.15,2013-08-15 16:05:00,
2013-08-15 09:07:00,86.9,58.2,29.69,SSE,158,2.0,-999.0,38,0.00,,,0.05,Wunderground v.1.15,2013-08-15 16:07:00,
2013-08-15 09:11:00,87.2,57.8,29.69,SSE,155,2.0,2.0,37,0.00,,,0.00,Wunderground v.1.15,2013-08-15 16:11:00,
2013-08-15 09:12:00,86.9,58.2,29.69,SSE,158,2.0,-999.0,38,0.00,,,0.05,Wunderground v.1.15,2013-08-15 16:12:00,
2013-08-15 09:17:00,88.6,58.2,29.69,ENE,67,1.0,3.0,36,0.00,,,0.00,Wunderground v.1.15,2013-08-15 16:17:00,
2013-08-15 09:22:00,88.9,57.7,29.69,ESE,119,2.0,3.0,35,0.00,,,0.00,Wunderground v.1.15,2013-08-15 16:22:00,
2013-08-15 09:27:00,89.4,58.1,29.70,East,90,2.0,-999.0,35,0.00,,,0.05,Wunderground v.1.15,2013-08-15 16:27:00,
2013-08-15 09:28:00,89.1,57.9,29.69,SE,135,2.0,3.0,35,0.00,,,0.00,Wunderground v.1.15,2013-08-15 16:28:00,
2013-08-15 09:32:00,89.4,58.1,29.70,East,90,2.0,-999.0,35,0.00,,,0.05,Wunderground v.1.15,2013-08-15 16:32:00,
2013-08-15 09:33:00,90.2,58.0,29.69,SW,233,2.0,3.0,34,0.00,,,0.00,Wunderground v.1.15,2013-08-15 16:33:00,
2013-08-15 09:37:00,91.2,58.1,29.69,South,180,2.0,-999.0,33,0.00,,,0.05,Wunderground v.1.15,2013-08-15 16:37:00,
2013-08-15 09:39:00,90.9,57.8,29.69,SSW,199,2.0,4.0,33,0.00,,,0.00,Wunderground v.1.15,2013-08-15 16:39:00,
2013-08-15 09:42:00,91.2,58.1,29.69,South,180,2.0,-999.0,33,0.00,,,0.05,Wunderground v.1.15,2013-08-15 16:42:00,
2013-08-15 09:44:00,91.6,57.6,29.69,SE,136,2.0,4.0,32,0.00,,,0.00,Wunderground v.1.15,2013-08-15 16:44:00,
2013-08-15 09:47:00,91.7,57.7,29.69,SE,135,3.0,-999.0,32,0.00,,,0.05,Wunderground v.1.15,2013-08-15 16:47:00,
2013-08-15 09:50:00,91.7,57.7,29.69,WSW,257,3.0,3.0,32,0.00,,,0.00,Wunderground v.1.15,2013-08-15 16:50:00,
2013-08-15 09:52:00,91.7,57.7,29.69,SE,135,3.0,-999.0,32,0.00,,,0.05,Wunderground v.1.15,2013-08-15 16:52:00,
2013-08-15 09:55:00,91.7,57.7,29.69,SSE,155,3.0,5.0,32,0.00,,,0.00,Wunderground v.1.15,2013-08-15 16:55:00,
2013-08-15 09:57:00,91.5,57.5,29.69,SE,135,4.0,-999.0,32,0.00,,,0.05,Wunderground v.1.15,2013-08-15 16:57:00,
2013-08-15 10:01:00,91.4,57.4,29.69,East,82,3.0,3.0,32,0.00,,,0.00,Wunderground v.1.15,2013-08-15 17:01:00,
2013-08-15 10:02:00,91.5,57.5,29.69,SE,135,4.0,-999.0,32,0.00,,,0.05,Wunderground v.1.15,2013-08-15 17:02:00,
2013-08-15 10:07:00,92.2,58.1,29.69,SSE,147,3.0,4.0,32,0.00,,,0.00,Wunderground v.1.15,2013-08-15 17:07:00,
2013-08-15 10:12:00,92.6,58.4,29.69,SSE,163,2.0,3.0,32,0.00,,,0.00,Wunderground v.1.15,2013-08-15 17:12:00,
2013-08-15 10:17:00,93.7,58.5,29.69,South,176,2.0,4.0,31,0.00,,,0.00,Wunderground v.1.15,2013-08-15 17:17:00,
2013-08-15 10:22:00,94.0,58.8,29.69,SE,131,2.0,4.0,31,0.00,,,0.00,Wunderground v.1.15,2013-08-15 17:22:00,
2013-08-15 10:27:00,92.7,58.5,29.69,SE,135,3.0,-999.0,32,0.00,,,0.05,Wunderground v.1.15,2013-08-15 17:27:00,
2013-08-15 10:28:00,92.6,57.6,29.69,North,350,4.0,4.0,31,0.00,,,0.00,Wunderground v.1.15,2013-08-15 17:28:00,
2013-08-15 10:32:00,92.7,58.5,29.69,SE,135,3.0,-999.0,32,0.00,,,0.05,Wunderground v.1.15,2013-08-15 17:32:00,
2013-08-15 10:35:00,93.4,58.2,29.68,SE,127,3.0,8.0,31,0.00,,,0.00,Wunderground v.1.15,2013-08-15 17:35:00,
2013-08-15 10:37:00,93.4,58.2,29.68,SSE,158,5.0,-999.0,31,0.00,,,0.05,Wunderground v.1.15,2013-08-15 17:37:00,
2013-08-15 10:40:00,93.4,58.2,29.68,SSE,153,5.0,5.0,31,0.00,,,0.00,Wunderground v.1.15,2013-08-15 17:40:00,
2013-08-15 10:42:00,93.4,58.2,29.68,SSE,158,5.0,-999.0,31,0.00,,,0.05,Wunderground v.1.15,2013-08-15 17:42:00,
2013-08-15 10:46:00,93.4,58.2,29.68,SE,130,5.0,7.0,31,0.00,,,0.00,Wunderground v.1.15,2013-08-15 17:46:00,
2013-08-15 10:47:00,94.0,57.8,29.68,SE,135,5.0,-999.0,30,0.00,,,0.05,Wunderground v.1.15,2013-08-15 17:47:00,
2013-08-15 10:52:00,94.2,58.0,29.68,SSE,162,5.0,10.0,30,0.00,,,0.00,Wunderground v.1.15,2013-08-15 17:52:00,
2013-08-15 10:57:00,94.5,57.3,29.67,WSW,238,4.0,10.0,29,0.00,,,0.00,Wunderground v.1.15,2013-08-15 17:57:00,
2013-08-15 11:02:00,94.6,58.4,29.67,South,191,4.0,4.0,30,0.00,,,0.00,Wunderground v.1.15,2013-08-15 18:02:00,
2013-08-15 11:07:00,95.3,58.0,29.67,ESE,116,3.0,4.0,29,0.00,,,0.00,Wunderground v.1.15,2013-08-15 18:07:00,
2013-08-15 11:12:00,96.2,57.8,29.67,SSW,197,2.0,2.0,28,0.00,,,0.00,Wunderground v.1.15,2013-08-15 18:12:00,
2013-08-15 11:17:00,97.1,57.6,29.67,ESE,113,4.0,-999.0,27,0.00,,,0.05,Wunderground v.1.15,2013-08-15 18:17:00,
2013-08-15 11:19:00,97.0,58.5,29.67,SE,128,3.0,8.0,28,0.00,,,0.00,Wunderground v.1.15,2013-08-15 18:19:00,
2013-08-15 11:22:00,97.1,57.6,29.67,ESE,113,4.0,-999.0,27,0.00,,,0.05,Wunderground v.1.15,2013-08-15 18:22:00,
2013-08-15 11:24:00,96.6,58.2,29.66,SSE,158,6.0,9.0,28,0.00,,,0.00,Wunderground v.1.15,2013-08-15 18:24:00,
2013-08-15 11:27:00,96.6,58.2,29.66,SE,135,4.0,-999.0,28,0.00,,,0.05,Wunderground v.1.15,2013-08-15 18:27:00,
2013-08-15 11:29:00,96.5,58.1,29.66,SE,138,5.0,9.0,28,0.00,,,0.00,Wunderground v.1.15,2013-08-15 18:29:00,
2013-08-15 11:32:00,96.6,58.2,29.66,SE,135,4.0,-999.0,28,0.00,,,0.05,Wunderground v.1.15,2013-08-15 18:32:00,
2013-08-15 11:36:00,96.5,57.1,29.66,SSW,207,4.0,7.0,27,0.00,,,0.00,Wunderground v.1.15,2013-08-15 18:36:00,
2013-08-15 11:37:00,95.8,57.5,29.66,West,270,4.0,-999.0,28,0.00,,,0.05,Wunderground v.1.15,2013-08-15 18:37:00,
2013-08-15 11:42:00,96.2,57.8,29.66,South,176,4.0,7.0,28,0.00,,,0.00,Wunderground v.1.15,2013-08-15 18:42:00,
2013-08-15 11:47:00,96.6,57.1,29.66,SSW,193,6.0,11.0,27,0.00,,,0.00,Wunderground v.1.15,2013-08-15 18:47:00,
2013-08-15 11:52:00,96.3,57.9,29.66,WSW,242,7.0,8.0,28,0.00,,,0.00,Wunderground v.1.15,2013-08-15 18:52:00,
2013-08-15 11:57:00,95.4,57.1,29.66,WNW,287,6.0,8.0,28,0.00,,,0.00,Wunderground v.1.15,2013-08-15 18:57:00,
2013-08-15 12:02:00,95.2,57.0,29.65,WSW,248,5.0,-999.0,28,0.00,,,0.05,Wunderground v.1.15,2013-08-15 19:02:00,
2013-08-15 12:03:00,95.7,57.4,29.65,NNW,333,4.0,5.0,28,0.00,,,0.00,Wunderground v.1.15,2013-08-15 19:03:00,
2013-08-15 12:07:00,97.5,57.9,29.65,WNW,293,3.0,-999.0,27,0.00,,,0.05,Wunderground v.1.15,2013-08-15 19:07:00,
2013-08-15 12:09:00,97.3,57.7,29.65,SSW,208,3.0,10.0,27,0.00,,,0.00,Wunderground v.1.15,2013-08-15 19:09:00,
2013-08-15 12:12:00,97.5,57.9,29.65,WNW,293,3.0,-999.0,27,0.00,,,0.05,Wunderground v.1.15,2013-08-15 19:12:00,
2013-08-15 12:14:00,97.1,57.6,29.65,SSW,207,5.0,6.0,27,0.00,,,0.00,Wunderground v.1.15,2013-08-15 19:14:00,
2013-08-15 12:17:00,97.5,57.9,29.64,SE,135,6.0,-999.0,27,0.00,,,0.05,Wunderground v.1.15,2013-08-15 19:17:00,
2013-08-15 12:20:00,97.5,57.9,29.64,SE,131,6.0,11.0,27,0.00,,,0.00,Wunderground v.1.15,2013-08-15 19:20:00,
2013-08-15 12:22:00,97.5,57.9,29.64,SE,135,6.0,-999.0,27,0.00,,,0.05,Wunderground v.1.15,2013-08-15 19:22:00,
2013-08-15 12:26:00,97.0,57.5,29.64,SSE,149,7.0,11.0,27,0.00,,,0.00,Wunderground v.1.15,2013-08-15 19:26:00,
2013-08-15 12:27:00,97.8,57.1,29.64,SE,135,5.0,-999.0,26,0.00,,,0.05,Wunderground v.1.15,2013-08-15 19:27:00,
2013-08-15 12:32:00,98.2,57.4,29.64,South,187,4.0,8.0,26,0.00,,,0.00,Wunderground v.1.15,2013-08-15 19:32:00,
2013-08-15 12:37:00,98.9,56.9,29.64,South,170,4.0,9.0,25,0.00,,,0.00,Wunderground v.1.15,2013-08-15 19:37:00,
2013-08-15 12:42:00,98.8,58.0,29.64,SSE,166,6.0,7.0,26,0.00,,,0.00,Wunderground v.1.15,2013-08-15 19:42:00,
2013-08-15 12:47:00,98.7,56.8,29.63,SSE,149,6.0,7.0,25,0.00,,,0.00,Wunderground v.1.15,2013-08-15 19:47:00,
2013-08-15 12:52:00,99.0,58.1,29.63,SE,135,5.0,-999.0,26,0.00,,,0.05,Wunderground v.1.15,2013-08-15 19:52:00,
2013-08-15 12:53:00,99.7,57.6,29.63,SE,127,5.0,8.0,25,0.00,,,0.00,Wunderground v.1.15,2013-08-15 19:53:00,
2013-08-15 12:57:00,98.9,55.8,29.63,SE,135,7.0,-999.0,24,0.00,,,0.05,Wunderground v.1.15,2013-08-15 19:57:00,
2013-08-15 13:01:00,98.9,55.8,29.63,SE,131,7.0,8.0,24,0.00,,,0.00,Wunderground v.1.15,2013-08-15 20:01:00,
2013-08-15 13:02:00,98.9,55.8,29.63,SE,135,7.0,-999.0,24,0.00,,,0.05,Wunderground v.1.15,2013-08-15 20:02:00,
2013-08-15 13:06:00,98.6,56.7,29.62,ENE,60,7.0,11.0,25,0.00,,,0.00,Wunderground v.1.15,2013-08-15 20:06:00,
2013-08-15 13:07:00,99.1,57.1,29.62,SE,135,6.0,-999.0,25,0.00,,,0.05,Wunderground v.1.15,2013-08-15 20:07:00,
2013-08-15 13:12:00,99.6,57.5,29.62,South,179,5.0,7.0,25,0.00,,,0.00,Wunderground v.1.15,2013-08-15 20:12:00,
2013-08-15 13:17:00,99.8,56.6,29.62,SW,230,3.0,7.0,24,0.00,,,0.00,Wunderground v.1.15,2013-08-15 20:17:00,
2013-08-15 13:22:00,100.1,56.8,29.62,SW,225,3.0,-999.0,24,0.00,,,0.05,Wunderground v.1.15,2013-08-15 20:22:00,
2013-08-15 13:24:00,99.9,56.7,29.62,SE,141,4.0,8.0,24,0.00,,,0.00,Wunderground v.1.15,2013-08-15 20:24:00,
2013-08-15 13:27:00,99.8,54.2,29.62,East,90,6.0,-999.0,22,0.00,,,0.05,Wunderground v.1.15,2013-08-15 20:27:00,
2013-08-15 13:30:00,99.8,54.2,29.62,NE,34,6.0,6.0,22,0.00,,,0.00,Wunderground v.1.15,2013-08-15 20:30:00,
2013-08-15 13:32:00,99.8,54.2,29.62,East,90,6.0,-999.0,22,0.00,,,0.05,Wunderground v.1.15,2013-08-15 20:32:00,
2013-08-15 13:35:00,98.5,55.5,29.61,ENE,69,5.0,8.0,24,0.00,,,0.00,Wunderground v.1.15,2013-08-15 20:35:00,
2013-08-15 13:37:00,98.0,55.1,29.61,ENE,68,6.0,-999.0,24,0.00,,,0.05,Wunderground v.1.15,2013-08-15 20:37:00,
2013-08-15 13:41:00,97.8,54.9,29.61,NNE,29,6.0,11.0,24,0.00,,,0.00,Wunderground v.1.15,2013-08-15 20:41:00,
2013-08-15 13:42:00,98.0,55.1,29.61,ENE,68,6.0,-999.0,24,0.00,,,0.05,Wunderground v.1.15,2013-08-15 20:42:00,
2013-08-15 13:46:00,98.1,55.1,29.61,NNW,346,6.0,11.0,24,0.00,,,0.00,Wunderground v.1.15,2013-08-15 20:46:00,
2013-08-15 13:47:00,98.4,55.4,29.61,NNE,23,4.0,-999.0,24,0.00,,,0.05,Wunderground v.1.15,2013-08-15 20:47:00,
2013-08-15 13:52:00,98.4,55.4,29.60,ENE,69,4.0,5.0,24,0.00,,,0.00,Wunderground v.1.15,2013-08-15 20:52:00,
2013-08-15 13:57:00,98.1,54.0,29.60,ENE,68,6.0,-999.0,23,0.00,,,0.05,Wunderground v.1.15,2013-08-15 20:57:00,
2013-08-15 13:58:00,98.3,54.1,29.60,ENE,59,5.0,9.0,23,0.00,,,0.00,Wunderground v.1.15,2013-08-15 20:58:00,
2013-08-15 14:02:00,98.1,54.0,29.60,ENE,68,6.0,-999.0,23,0.00,,,0.05,Wunderground v.1.15,2013-08-15 21:02:00,
2013-08-15 14:03:00,97.8,54.9,29.60,ENE,76,7.0,10.0,24,0.00,,,0.00,Wunderground v.1.15,2013-08-15 21:03:00,
2013-08-15 14:07:00,97.1,55.4,29.60,ENE,68,5.0,-999.0,25,0.00,,,0.05,Wunderground v.1.15,2013-08-15 21:07:00,
2013-08-15 14:09:00,97.1,54.3,29.60,NE,39,6.0,10.0,24,0.00,,,0.00,Wunderground v.1.15,2013-08-15 21:09:00,
2013-08-15 14:12:00,97.1,55.4,29.60,ENE,68,5.0,-999.0,25,0.00,,,0.05,Wunderground v.1.15,2013-08-15 21:12:00,
2013-08-15 14:14:00,96.8,55.2,29.60,ENE,70,5.0,6.0,25,0.00,,,0.00,Wunderground v.1.15,2013-08-15 21:14:00,
2013-08-15 14:17:00,96.7,55.1,29.60,ENE,68,4.0,-999.0,25,0.00,,,0.05,Wunderground v.1.15,2013-08-15 21:17:00,
2013-08-15 14:20:00,96.6,55.0,29.60,NNE,29,4.0,5.0,25,0.00,,,0.00,Wunderground v.1.15,2013-08-15 21:20:00,
2013-08-15 14:22:00,96.7,55.1,29.60,ENE,68,4.0,-999.0,25,0.00,,,0.05,Wunderground v.1.15,2013-08-15 21:22:00,
2013-08-15 14:25:00,96.7,54.0,29.60,NNW,332,4.0,8.0,24,0.00,,,0.00,Wunderground v.1.15,2013-08-15 21:25:00,
2013-08-15 14:27:00,96.8,54.1,29.60,NNE,23,4.0,-999.0,24,0.00,,,0.05,Wunderground v.1.15,2013-08-15 21:27:00,
2013-08-15 14:30:00,96.8,54.1,29.60,SW,214,4.0,4.0,24,0.00,,,0.00,Wunderground v.1.15,2013-08-15 21:30:00,
2013-08-15 14:32:00,96.8,54.1,29.60,NNE,23,4.0,-999.0,24,0.00,,,0.05,Wunderground v.1.15,2013-08-15 21:32:00,
2013-08-15 14:36:00,98.1,55.1,29.59,East,79,2.0,4.0,24,0.00,,,0.00,Wunderground v.1.15,2013-08-15 21:36:00,
2013-08-15 14:37:00,99.3,55.0,29.59,ESE,113,2.0,-999.0,23,0.00,,,0.05,Wunderground v.1.15,2013-08-15 21:37:00,
2013-08-15 14:42:00,99.6,54.0,29.59,SSW,197,2.0,4.0,22,0.00,,,0.00,Wunderground v.1.15,2013-08-15 21:42:00,
2013-08-15 14:47:00,99.4,56.2,29.59,West,271,5.0,11.0,24,0.00,,,0.00,Wunderground v.1.15,2013-08-15 21:47:00,
2013-08-15 14:52:00,99.2,56.1,29.59,WSW,248,6.0,-999.0,24,0.00,,,0.05,Wunderground v.1.15,2013-08-15 21:52:00,
2013-08-15 14:53:00,98.7,55.6,29.59,WSW,238,7.0,10.0,24,0.00,,,0.00,Wunderground v.1.15,2013-08-15 21:53:00,
2013-08-15 14:57:00,99.6,56.4,29.58,WSW,248,4.0,-999.0,24,0.00,,,0.05,Wunderground v.1.15,2013-08-15 21:57:00,
2013-08-15 14:59:00,99.2,56.1,29.58,WSW,255,5.0,10.0,24,0.00,,,0.00,Wunderground v.1.15,2013-08-15 21:59:00,
2013-08-15 15:02:00,99.6,56.4,29.58,WSW,248,4.0,-999.0,24,0.00,,,0.05,Wunderground v.1.15,2013-08-15 22:02:00,
2013-08-15 15:05:00,99.9,55.5,29.58,NW,321,5.0,8.0,23,0.00,,,0.00,Wunderground v.1.15,2013-08-15 22:05:00,
2013-08-15 15:07:00,99.6,55.2,29.58,NW,315,6.0,-999.0,23,0.00,,,0.05,Wunderground v.1.15,2013-08-15 22:07:00,
2013-08-15 15:11:00,99.4,55.1,29.58,NW,311,6.0,6.0,23,0.00,,,0.00,Wunderground v.1.15,2013-08-15 22:11:00,
2013-08-15 15:12:00,99.6,55.2,29.58,NW,315,6.0,-999.0,23,0.00,,,0.05,Wunderground v.1.15,2013-08-15 22:12:00,
2013-08-15 15:17:00,100.0,55.6,29.58,East,99,4.0,6.0,23,0.00,,,0.00,Wunderground v.1.15,2013-08-15 22:17:00,
2013-08-15 15:22:00,100.0,55.6,29.57,ESE,107,4.0,5.0,23,0.00,,,0.00,Wunderground v.1.15,2013-08-15 22:22:00,
2013-08-15 15:27:00,100.6,56.1,29.57,ENE,68,3.0,-999.0,23,0.00,,,0.05,Wunderground v.1.15,2013-08-15 22:27:00,
2013-08-15 15:28:00,100.1,55.6,29.57,SSE,153,4.0,5.0,23,0.00,,,0.00,Wunderground v.1.15,2013-08-15 22:28:00,
2013-08-15 15:32:00,100.6,56.1,29.57,ENE,68,3.0,-999.0,23,0.00,,,0.05,Wunderground v.1.15,2013-08-15 22:32:00,
2013-08-15 15:33:00,101.3,55.4,29.57,SSW,200,3.0,6.0,22,0.00,,,0.00,Wunderground v.1.15,2013-08-15 22:33:00,
2013-08-15 15:37:00,100.1,55.6,29.57,WSW,248,7.0,-999.0,23,0.00,,,0.05,Wunderground v.1.15,2013-08-15 22:37:00,
2013-08-15 15:39:00,100.3,55.8,29.57,WSW,239,7.0,13.0,23,0.00,,,0.00,Wunderground v.1.15,2013-08-15 22:39:00,
2013-08-15 15:42:00,100.1,55.6,29.57,WSW,248,7.0,-999.0,23,0.00,,,0.05,Wunderground v.1.15,2013-08-15 22:42:00,
2013-08-15 15:44:00,100.5,56.0,29.57,East,94,6.0,7.0,23,0.00,,,0.00,Wunderground v.1.15,2013-08-15 22:44:00,
2013-08-15 15:47:00,100.3,55.8,29.57,SSW,203,3.0,-999.0,23,0.00,,,0.05,Wunderground v.1.15,2013-08-15 22:47:00,
2013-08-15 15:50:00,100.3,55.8,29.57,SSW,205,3.0,3.0,23,0.00,,,0.00,Wunderground v.1.15,2013-08-15 22:50:00,
2013-08-15 15:52:00,100.3,55.8,29.57,SSW,203,3.0,-999.0,23,0.00,,,0.05,Wunderground v.1.15,2013-08-15 22:52:00,
2013-08-15 15:56:00,101.5,55.6,29.57,SW,226,5.0,10.0,22,0.00,,,0.00,Wunderground v.1.15,2013-08-15 22:56:00,
2013-08-15 15:57:00,101.8,55.8,29.56,SW,225,5.0,-999.0,22,0.00,,,0.05,Wunderground v.1.15,2013-08-15 22:57:00,
2013-08-15 16:01:00,101.6,55.7,29.56,ESE,111,5.0,5.0,22,0.00,,,0.00,Wunderground v.1.15,2013-08-15 23:01:00,
2013-08-15 16:02:00,101.8,55.8,29.56,SW,225,5.0,-999.0,22,0.00,,,0.05,Wunderground v.1.15,2013-08-15 23:02:00,
2013-08-15 16:06:00,101.5,55.6,29.56,West,269,4.0,5.0,22,0.00,,,0.00,Wunderground v.1.15,2013-08-15 23:06:00,
2013-08-15 16:07:00,101.0,55.2,29.56,WSW,248,5.0,-999.0,22,0.00,,,0.05,Wunderground v.1.15,2013-08-15 23:07:00,
2013-08-15 16:12:00,100.6,54.8,29.56,WNW,298,6.0,7.0,22,0.00,,,0.00,Wunderground v.1.15,2013-08-15 23:12:00,
2013-08-15 16:17:00,100.4,55.9,29.56,East,96,7.0,9.0,23,0.00,,,0.00,Wunderground v.1.15,2013-08-15 23:17:00,
2013-08-15 16:22:00,100.5,54.7,29.56,WSW,250,5.0,6.0,22,0.00,,,0.00,Wunderground v.1.15,2013-08-15 23:22:00,
2013-08-15 16:27:00,100.3,55.8,29.56,West,270,5.0,-999.0,23,0.00,,,0.05,Wunderground v.1.15,2013-08-15 23:27:00,
2013-08-15 16:28:00,100.4,54.7,29.56,NW,316,5.0,8.0,22,0.00,,,0.00,Wunderground v.1.15,2013-08-15 23:28:00,
2013-08-15 16:32:00,100.3,55.8,29.56,West,270,5.0,-999.0,23,0.00,,,0.05,Wunderground v.1.15,2013-08-15 23:32:00,
2013-08-15 16:34:00,100.3,54.6,29.56,West,260,6.0,9.0,22,0.00,,,0.00,Wunderground v.1.15,2013-08-15 23:34:00,
2013-08-15 16:37:00,100.6,54.8,29.56,WSW,248,6.0,-999.0,22,0.00,,,0.05,Wunderground v.1.15,2013-08-15 23:37:00,
2013-08-15 16:40:00,100.6,54.8,29.56,SW,217,6.0,6.0,22,0.00,,,0.00,Wunderground v.1.15,2013-08-15 23:40:00,
2013-08-15 16:42:00,100.6,54.8,29.56,WSW,248,6.0,-999.0,22,0.00,,,0.05,Wunderground v.1.15,2013-08-15 23:42:00,
2013-08-15 16:45:00,100.5,54.7,29.56,SSW,203,6.0,9.0,22,0.00,,,0.00,Wunderground v.1.15,2013-08-15 23:45:00,
2013-08-15 16:47:00,100.3,54.6,29.56,SSW,203,7.0,-999.0,22,0.00,,,0.05,Wunderground v.1.15,2013-08-15 23:47:00,
2013-08-15 16:51:00,100.2,54.5,29.56,SSW,193,7.0,9.0,22,0.00,,,0.00,Wunderground v.1.15,2013-08-15 23:51:00,
2013-08-15 16:52:00,100.3,54.6,29.56,SSW,203,7.0,-999.0,22,0.00,,,0.05,Wunderground v.1.15,2013-08-15 23:52:00,
2013-08-15 16:57:00,99.7,54.1,29.56,WNW,294,7.0,9.0,22,0.00,,,0.00,Wunderground v.1.15,2013-08-15 23:57:00,
2013-08-15 17:02:00,99.0,54.7,29.56,SW,225,6.0,-999.0,23,0.00,,,0.05,Wunderground v.1.15,2013-08-16 00:02:00,
2013-08-15 17:03:00,98.7,54.5,29.56,SSW,203,6.0,7.0,23,0.00,,,0.00,Wunderground v.1.15,2013-08-16 00:03:00,
2013-08-15 17:07:00,99.1,54.8,29.56,WSW,248,6.0,-999.0,23,0.00,,,0.05,Wunderground v.1.15,2013-08-16 00:07:00,
2013-08-15 17:08:00,99.1,54.8,29.56,SW,236,5.0,11.0,23,0.00,,,0.00,Wunderground v.1.15,2013-08-16 00:08:00,
2013-08-15 17:12:00,99.1,54.8,29.56,WSW,248,6.0,-999.0,23,0.00,,,0.05,Wunderground v.1.15,2013-08-16 00:12:00,
2013-08-15 17:13:00,99.2,54.9,29.56,SW,231,6.0,10.0,23,0.00,,,0.00,Wunderground v.1.15,2013-08-16 00:13:00,
2013-08-15 17:17:00,98.6,54.4,29.56,WSW,248,6.0,-999.0,23,0.00,,,0.05,Wunderground v.1.15,2013-08-16 00:17:00,
2013-08-15 17:19:00,98.7,54.5,29.56,SW,231,6.0,10.0,23,0.00,,,0.00,Wunderground v.1.15,2013-08-16 00:19:00,
2013-08-15 17:22:00,98.6,54.4,29.56,WSW,248,6.0,-999.0,23,0.00,,,0.05,Wunderground v.1.15,2013-08-16 00:22:00,
2013-08-15 17:25:00,98.7,54.5,29.55,South,181,7.0,11.0,23,0.00,,,0.00,Wunderground v.1.15,2013-08-16 00:25:00,
2013-08-15 17:27:00,99.1,54.8,29.55,SSW,203,7.0,-999.0,23,0.00,,,0.05,Wunderground v.1.15,2013-08-16 00:27:00,
2013-08-15 17:31:00,99.2,53.7,29.55,SW,214,7.0,11.0,22,0.00,,,0.00,Wunderground v.1.15,2013-08-16 00:31:00,
2013-08-15 17:32:00,99.1,54.8,29.55,SSW,203,7.0,-999.0,23,0.00,,,0.05,Wunderground v.1.15,2013-08-16 00:32:00,
2013-08-15 17:36:00,99.4,53.8,29.55,WSW,246,7.0,11.0,22,0.00,,,0.00,Wunderground v.1.15,2013-08-16 00:36:00,
2013-08-15 17:37:00,99.4,53.8,29.55,SSW,203,8.0,-999.0,22,0.00,,,0.05,Wunderground v.1.15,2013-08-16 00:37:00,
2013-08-15 17:41:00,99.2,54.9,29.55,WSW,240,8.0,13.0,23,0.00,,,0.00,Wunderground v.1.15,2013-08-16 00:41:00,
2013-08-15 17:42:00,99.4,53.8,29.55,SSW,203,8.0,-999.0,22,0.00,,,0.05,Wunderground v.1.15,2013-08-16 00:42:00,
2013-08-15 17:47:00,98.9,54.6,29.55,WSW,253,7.0,13.0,23,0.00,,,0.00,Wunderground v.1.15,2013-08-16 00:47:00,
2013-08-15 17:52:00,99.2,54.9,29.55,SSE,162,5.0,6.0,23,0.00,,,0.00,Wunderground v.1.15,2013-08-16 00:52:00,
2013-08-15 17:57:00,99.5,53.9,29.55,WSW,257,6.0,14.0,22,0.00,,,0.00,Wunderground v.1.15,2013-08-16 00:57:00,
2013-08-15 18:02:00,98.9,54.6,29.56,NNW,329,7.0,7.0,23,0.00,,,0.00,Wunderground v.1.15,2013-08-16 01:02:00,
2013-08-15 18:07:00,98.7,54.5,29.56,NNW,338,4.0,-999.0,23,0.00,,,0.05,Wunderground v.1.15,2013-08-16 01:07:00,
2013-08-15 18:08:00,98.9,54.6,29.56,NNW,334,4.0,9.0,23,0.00,,,0.00,Wunderground v.1.15,2013-08-16 01:08:00,
2013-08-15 18:12:00,98.7,54.5,29.56,NNW,338,4.0,-999.0,23,0.00,,,0.05,Wunderground v.1.15,2013-08-16 01:12:00,
2013-08-15 18:13:00,98.5,54.3,29.56,NE,45,4.0,9.0,23,0.00,,,0.00,Wunderground v.1.15,2013-08-16 01:13:00,
2013-08-15 18:17:00,97.7,54.8,29.57,NW,315,6.0,-999.0,24,0.00,,,0.05,Wunderground v.1.15,2013-08-16 01:17:00,
2013-08-15 18:20:00,97.8,54.9,29.57,WNW,301,6.0,6.0,24,0.00,,,0.00,Wunderground v.1.15,2013-08-16 01:20:00,
2013-08-15 18:22:00,97.7,54.8,29.57,NW,315,6.0,-999.0,24,0.00,,,0.05,Wunderground v.1.15,2013-08-16 01:22:00,
2013-08-15 18:25:00,97.5,54.6,29.57,WSW,253,5.0,14.0,24,0.00,,,0.00,Wunderground v.1.15,2013-08-16 01:25:00,
2013-08-15 18:27:00,97.2,54.4,29.57,SW,225,4.0,-999.0,24,0.00,,,0.05,Wunderground v.1.15,2013-08-16 01:27:00,
2013-08-15 18:31:00,97.2,54.4,29.57,WNW,293,4.0,6.0,24,0.00,,,0.00,Wunderground v.1.15,2013-08-16 01:31:00,
2013-08-15 18:32:00,97.2,54.4,29.57,SW,225,4.0,-999.0,24,0.00,,,0.05,Wunderground v.1.15,2013-08-16 01:32:00,
2013-08-15 18:37:00,97.0,54.2,29.57,North,354,4.0,6.0,24,0.00,,,0.00,Wunderground v.1.15,2013-08-16 01:37:00,
2013-08-15 18:42:00,96.8,54.1,29.58,North,352,6.0,12.0,24,0.00,,,0.00,Wunderground v.1.15,2013-08-16 01:42:00,
2013-08-15 18:47:00,93.7,58.5,29.60,North,0,12.0,-999.0,31,0.00,,,0.05,Wunderground v.1.15,2013-08-16 01:47:00,
2013-08-15 18:48:00,95.3,56.0,29.60,North,8,9.0,23.0,27,0.00,,,0.00,Wunderground v.1.15,2013-08-16 01:48:00,
2013-08-15 18:52:00,93.7,58.5,29.60,North,0,12.0,-999.0,31,0.00,,,0.05,Wunderground v.1.15,2013-08-16 01:52:00,
2013-08-15 18:54:00,90.7,60.1,29.61,NW,312,13.0,14.0,36,0.00,,,0.00,Wunderground v.1.15,2013-08-16 01:54:00,
2013-08-15 18:57:00,87.7,61.1,29.61,NNW,338,9.0,-999.0,41,0.00,,,0.05,Wunderground v.1.15,2013-08-16 01:57:00,
2013-08-15 19:00:00,87.7,61.1,29.61,NE,34,10.0,10.0,41,0.00,,,0.00,Wunderground v.1.15,2013-08-16 02:00:00,
2013-08-15 19:02:00,87.7,61.1,29.61,NNW,338,9.0,-999.0,41,0.00,,,0.05,Wunderground v.1.15,2013-08-16 02:02:00,
2013-08-15 19:05:00,87.3,61.4,29.61,NW,323,6.0,10.0,42,0.00,,,0.00,Wunderground v.1.15,2013-08-16 02:05:00,
2013-08-15 19:07:00,87.7,60.4,29.61,NNW,338,6.0,-999.0,40,0.00,,,0.05,Wunderground v.1.15,2013-08-16 02:07:00,
2013-08-15 19:10:00,87.7,60.4,29.61,NW,315,6.0,6.0,40,0.00,,,0.00,Wunderground v.1.15,2013-08-16 02:10:00,
2013-08-15 19:12:00,87.7,60.4,29.61,NNW,338,6.0,-999.0,40,0.00,,,0.05,Wunderground v.1.15,2013-08-16 02:12:00,
2013-08-15 19:15:00,88.2,61.5,29.62,NNW,346,6.0,7.0,41,0.00,,,0.01,Wunderground v.1.15,2013-08-16 02:15:00,
2013-08-15 19:17:00,85.9,65.1,29.63,NNW,338,4.0,-999.0,50,0.05,,,0.05,Wunderground v.1.15,2013-08-16 02:17:00,
2013-08-15 19:21:00,84.9,66.9,29.64,NE,44,4.0,5.0,55,0.32,,,0.05,Wunderground v.1.15,2013-08-16 02:21:00,
2013-08-15 19:22:00,85.9,65.1,29.63,NNW,338,4.0,-999.0,50,0.05,,,0.05,Wunderground v.1.15,2013-08-16 02:22:00,
2013-08-15 19:27:00,82.8,64.5,29.63,SSW,208,3.0,10.0,54,0.08,,,0.05,Wunderground v.1.15,2013-08-16 02:27:00,
2013-08-15 19:32:00,82.4,65.1,29.64,SSW,203,5.0,-999.0,56,0.05,,,0.05,Wunderground v.1.15,2013-08-16 02:32:00,
2013-08-15 19:37:00,83.3,59.1,29.64,SSW,203,3.0,-999.0,44,0.05,,,0.05,Wunderground v.1.15,2013-08-16 02:37:00,
2013-08-15 19:42:00,83.3,59.1,29.64,SSW,203,3.0,-999.0,44,0.05,,,0.05,Wunderground v.1.15,2013-08-16 02:42:00,
2013-08-15 19:47:00,83.0,59.5,29.63,SW,225,6.0,-999.0,45,0.05,,,0.05,Wunderground v.1.15,2013-08-16 02:47:00,
2013-08-15 19:52:00,83.0,59.5,29.63,SW,225,6.0,-999.0,45,0.05,,,0.05,Wunderground v.1.15,2013-08-16 02:52:00,
2013-08-15 19:57:00,84.0,60.4,29.62,ESE,113,2.0,-999.0,45,0.05,,,0.05,Wunderground v.1.15,2013-08-16 02:57:00,
2013-08-15 20:02:00,84.0,60.4,29.62,ESE,113,2.0,-999.0,45,0.05,,,0.05,Wunderground v.1.15,2013-08-16 03:02:00,
2013-08-15 20:07:00,84.3,59.4,29.62,NE,45,3.0,-999.0,43,0.05,,,0.05,Wunderground v.1.15,2013-08-16 03:07:00,
2013-08-15 20:12:00,84.3,59.4,29.62,NE,45,3.0,-999.0,43,0.05,,,0.05,Wunderground v.1.15,2013-08-16 03:12:00,
2013-08-15 20:17:00,85.5,57.7,29.62,NNW,338,3.0,-999.0,39,0.00,,,0.05,Wunderground v.1.15,2013-08-16 03:17:00,
2013-08-15 20:22:00,85.5,57.7,29.62,NNW,338,3.0,-999.0,39,0.00,,,0.05,Wunderground v.1.15,2013-08-16 03:22:00,
2013-08-15 20:27:00,86.4,59.9,29.62,NW,315,4.0,-999.0,41,0.00,,,0.05,Wunderground v.1.15,2013-08-16 03:27:00,
2013-08-15 20:32:00,86.4,59.9,29.62,NW,315,4.0,-999.0,41,0.00,,,0.05,Wunderground v.1.15,2013-08-16 03:32:00,
2013-08-15 20:37:00,85.4,60.4,29.62,NNW,338,4.0,-999.0,43,0.00,,,0.05,Wunderground v.1.15,2013-08-16 03:37:00,
2013-08-15 20:42:00,85.4,60.4,29.62,NNW,338,4.0,-999.0,43,0.00,,,0.05,Wunderground v.1.15,2013-08-16 03:42:00,
2013-08-15 20:47:00,85.1,61.4,29.63,North,0,1.0,-999.0,45,0.00,,,0.05,Wunderground v.1.15,2013-08-16 03:47:00,
2013-08-15 20:52:00,85.1,61.4,29.63,North,0,1.0,-999.0,45,0.00,,,0.05,Wunderground v.1.15,2013-08-16 03:52:00,
2013-08-15 20:57:00,84.9,59.9,29.64,ENE,68,3.0,-999.0,43,0.00,,,0.05,Wunderground v.1.15,2013-08-16 03:57:00,
2013-08-15 21:02:00,84.9,59.9,29.64,ENE,68,3.0,-999.0,43,0.00,,,0.05,Wunderground v.1.15,2013-08-16 04:02:00,
2013-08-15 21:07:00,84.6,60.3,29.65,NE,45,2.0,-999.0,44,0.00,,,0.05,Wunderground v.1.15,2013-08-16 04:07:00,
2013-08-15 21:12:00,84.6,60.3,29.65,NE,45,2.0,-999.0,44,0.00,,,0.05,Wunderground v.1.15,2013-08-16 04:12:00,
2013-08-15 21:17:00,85.0,58.7,29.65,NNE,23,3.0,-999.0,41,0.00,,,0.05,Wunderground v.1.15,2013-08-16 04:17:00,
2013-08-15 21:22:00,85.0,58.7,29.65,NNE,23,3.0,-999.0,41,0.00,,,0.05,Wunderground v.1.15,2013-08-16 04:22:00,
2013-08-15 21:27:00,85.4,57.6,29.64,NNW,338,7.0,-999.0,39,0.00,,,0.05,Wunderground v.1.15,2013-08-16 04:27:00,
2013-08-15 21:32:00,85.4,57.6,29.64,NNW,338,7.0,-999.0,39,0.00,,,0.05,Wunderground v.1.15,2013-08-16 04:32:00,
2013-08-15 21:37:00,85.7,58.6,29.64,North,0,9.0,-999.0,40,0.00,,,0.05,Wunderground v.1.15,2013-08-16 04:37:00,
2013-08-15 21:42:00,85.7,58.6,29.64,North,0,9.0,-999.0,40,0.00,,,0.05,Wunderground v.1.15,2013-08-16 04:42:00,
2013-08-15 21:47:00,85.5,57.7,29.64,NNW,338,6.0,-999.0,39,0.00,,,0.05,Wunderground v.1.15,2013-08-16 04:47:00,
2013-08-15 21:52:00,85.5,57.7,29.64,NNW,338,6.0,-999.0,39,0.00,,,0.05,Wunderground v.1.15,2013-08-16 04:52:00,
2013-08-15 21:57:00,86.3,55.4,29.64,NNW,338,4.0,-999.0,35,0.00,,,0.05,Wunderground v.1.15,2013-08-16 04:57:00,
2013-08-15 22:02:00,86.3,55.4,29.64,NNW,338,4.0,-999.0,35,0.00,,,0.05,Wunderground v.1.15,2013-08-16 05:02:00,
2013-08-15 22:07:00,86.8,55.1,29.65,North,0,2.0,-999.0,34,0.00,,,0.05,Wunderground v.1.15,2013-08-16 05:07:00,
2013-08-15 22:12:00,86.8,55.1,29.65,North,0,2.0,-999.0,34,0.00,,,0.05,Wunderground v.1.15,2013-08-16 05:12:00,
2013-08-15 22:17:00,87.6,54.1,29.65,North,0,5.0,-999.0,32,0.00,,,0.05,Wunderground v.1.15,2013-08-16 05:17:00,
2013-08-15 22:22:00,87.6,54.1,29.65,North,0,5.0,-999.0,32,0.00,,,0.05,Wunderground v.1.15,2013-08-16 05:22:00,
2013-08-15 22:27:00,86.8,55.1,29.65,North,0,5.0,-999.0,34,0.00,,,0.05,Wunderground v.1.15,2013-08-16 05:27:00,
2013-08-15 22:32:00,86.8,55.1,29.65,North,0,5.0,-999.0,34,0.00,,,0.05,Wunderground v.1.15,2013-08-16 05:32:00,
2013-08-15 22:37:00,87.6,54.9,29.64,NNW,338,6.0,-999.0,33,0.00,,,0.05,Wunderground v.1.15,2013-08-16 05:37:00,
2013-08-15 22:42:00,87.6,54.9,29.64,NNW,338,6.0,-999.0,33,0.00,,,0.05,Wunderground v.1.15,2013-08-16 05:42:00,
2013-08-15 22:47:00,88.0,54.4,29.65,North,0,6.0,-999.0,32,0.00,,,0.05,Wunderground v.1.15,2013-08-16 05:47:00,
2013-08-15 22:52:00,88.0,54.4,29.65,North,0,6.0,-999.0,32,0.00,,,0.05,Wunderground v.1.15,2013-08-16 05:52:00,
2013-08-15 22:57:00,88.1,54.5,29.64,North,0,5.0,-999.0,32,0.00,,,0.05,Wunderground v.1.15,2013-08-16 05:57:00,
2013-08-15 23:02:00,88.1,54.5,29.64,North,0,5.0,-999.0,32,0.00,,,0.05,Wunderground v.1.15,2013-08-16 06:02:00,
2013-08-15 23:07:00,88.0,54.4,29.65,NNW,338,6.0,-999.0,32,0.00,,,0.05,Wunderground v.1.15,2013-08-16 06:07:00,
2013-08-15 23:12:00,88.0,54.4,29.65,NNW,338,6.0,-999.0,32,0.00,,,0.05,Wunderground v.1.15,2013-08-16 06:12:00,
2013-08-15 23:17:00,87.8,54.3,29.64,NNW,338,6.0,-999.0,32,0.00,,,0.05,Wunderground v.1.15,2013-08-16 06:17:00,
2013-08-15 23:22:00,87.8,54.3,29.64,NNW,338,6.0,-999.0,32,0.00,,,0.05,Wunderground v.1.15,2013-08-16 06:22:00,
2013-08-15 23:27:00,87.5,54.0,29.64,NNW,338,6.0,-999.0,32,0.00,,,0.05,Wunderground v.1.15,2013-08-16 06:27:00,
2013-08-15 23:32:00,87.5,54.0,29.64,NNW,338,6.0,-999.0,32,0.00,,,0.05,Wunderground v.1.15,2013-08-16 06:32:00,
2013-08-15 23:37:00,87.1,54.5,29.64,NNW,338,4.0,-999.0,33,0.00,,,0.05,Wunderground v.1.15,2013-08-16 06:37:00,
2013-08-15 23:42:00,87.1,54.5,29.64,NNW,338,4.0,-999.0,33,0.00,,,0.05,Wunderground v.1.15,2013-08-16 06:42:00,
2013-08-15 23:47:00,87.0,54.4,29.64,NNW,338,5.0,-999.0,33,0.00,,,0.05,Wunderground v.1.15,2013-08-16 06:47:00,
2013-08-15 23:52:00,87.0,54.4,29.64,NNW,338,5.0,-999.0,33,0.00,,,0.05,Wunderground v.1.15,2013-08-16 06:52:00,
2013-08-15 23:57:00,87.0,55.2,29.64,NNW,338,6.0,-999.0,34,0.00,,,0.05,Wunderground v.1.15,2013-08-16 06:57:00,